Location: Goheenville
(40.9070°N, 79.3720°W)
Time: 05:34:28
(UTC-04:00)

Daily predictions for brighter satellites

Satellite Brightness Start Highest point End
(mag) Time Altitude Azimuth Time Altitude Azimuth Time Altitude Azimuth
ALOS 2 3.9 00:07:05 31° ENE 00:07:05 31° ENE 00:10:49 10° N
NOSS 3-2 (C) 3.9 00:08:05 44° ESE 00:08:05 44° ESE 00:13:56 10° NE
H-2A R/B 3.3 00:07:09 27° WSW 00:08:04 29° W 00:12:25 10° NW
Cosmos 1544 4.1 00:05:06 10° NNW 00:07:57 45° NW 00:07:57 45° NW
Cosmos 2082 Rocket 4.0 00:18:14 18° E 00:18:14 18° E 00:21:02 10° ENE
Cosmos 1707 3.6 00:24:10 48° N 00:24:10 48° N 00:27:07 10° N
Cosmos 1092 Rocket 4.4 00:22:26 41° SW 00:24:20 56° W 00:30:32 10° N
Cosmos 1943 Rocket 3.5 00:22:38 10° NW 00:27:14 27° WSW 00:27:40 27° WSW
SL-8 R/B 3.8 00:24:36 10° WNW 00:28:57 71° NW 00:28:57 71° NW
Cosmos 468 Rocket 4.1 00:29:54 10° NNW 00:35:09 65° ENE 00:35:15 65° ENE
ISS 0.1 00:35:40 10° NW 00:37:17 13° N 00:38:54 10° NNE
Meteor 1-24 Rocket 3.7 00:39:20 74° S 00:39:54 86° E 00:45:52 10° N
Cosmos 1656 Rocket 4.2 00:35:01 10° NW 00:40:23 45° WSW 00:40:27 45° WSW
Cosmos 1814 Rocket 4.1 00:37:22 10° NNW 00:42:39 67° ENE 00:42:46 67° ENE
S3M 3.9 00:37:22 10° N 00:43:38 74° E 00:44:21 66° SE
Landsat 5 4.3 00:50:14 45° N 00:50:14 45° N 00:53:10 10° N
H-2A R/B 3.4 00:46:30 10° N 00:49:07 42° N 00:49:07 42° N
Cosmos 1766 Rocket 4.0 00:51:41 61° N 00:51:41 61° N 00:55:26 10° N
NOSS 3-2 (A) 3.5 00:50:05 56° SW 00:51:29 78° NW 00:58:10 10° NNE
Cosmos 1655 Rocket 4.2 00:51:26 55° SW 00:52:34 64° W 00:58:47 10° N
Cosmos 1428 Rocket 4.3 00:53:12 74° S 00:53:49 87° E 01:00:04 10° N
Timation 2 Rocket 4.1 00:54:32 65° SSE 00:55:26 73° ESE 01:02:15 10° NNE
Cosmos 1076 Rocket 4.3 00:57:52 49° NNW 00:57:52 49° NNW 01:01:13 10° N
CZ-2C R/B 3.6 00:52:38 10° NNE 00:57:28 36° E 00:57:28 36° E
Cosmos 1486 Rocket 4.0 00:58:22 77° NE 00:58:22 77° NE 01:03:16 10° NNE
Cosmos 2221 3.7 00:54:53 10° NNW 00:58:04 36° WNW 00:58:04 36° WNW
CZ-4C R/B 2.2 00:58:46 64° W 00:59:25 71° NW 01:05:24 10° NNE
Cosmos 1328 Rocket 4.3 00:55:49 10° N 00:59:20 49° NE 00:59:20 49° NE
Cosmos 2344 3.6 01:07:08 54° SSE 01:08:34 63° ESE 01:17:00 10° NE
Cosmos 1818 3.5 01:03:08 10° NNW 01:08:30 85° NW 01:08:30 85° NW
In-Cosmos 22 4.2 01:08:53 65° E 01:08:53 65° E 01:14:29 10° NNE
Cosmos 1515 Rocket 4.2 01:09:12 10° N 01:12:52 53° NNE 01:12:52 53° NNE
Cosmos 1763 Rocket 3.6 01:09:28 10° NNW 01:14:48 70° ENE 01:14:50 70° ENE
CZ-4B R/B 3.6 01:17:49 25° NW 01:17:49 25° NW 01:19:40 10° NNW
Meteor 1-21 Rocket 4.2 01:18:19 71° ESE 01:18:29 71° E 01:24:08 10° NNE
Lacrosse 5 3.4 01:14:05 10° NNW 01:18:40 33° NNE 01:21:51 17° E
Cosmos 2369 3.6 01:14:15 10° NNW 01:19:54 80° WSW 01:19:54 80° WSW
Cosmos 2228 Rocket 3.9 01:17:18 10° NNW 01:20:39 46° NW 01:20:39 46° NW
Meteor 2-2 Rocket 4.1 01:28:19 10° N 01:34:04 81° E 01:34:28 75° SE
Cosmos 724 4.1 01:34:02 79° SE 01:34:09 79° ESE 01:40:01 10° NNE
Cosmos 1980 Rocket 3.3 01:35:24 10° N 01:40:38 38° ENE 01:42:54 27° ESE
Cosmos 2278 4.3 01:36:51 10° NW 01:41:40 44° W 01:41:40 44° W
ALOS 2 4.5 01:44:29 21° WNW 01:44:29 21° WNW 01:46:47 10° NW
Cosmos 1867 3.9 01:42:42 53° W 01:43:22 57° NW 01:48:48 10° NNE
Cosmos 1908 4.5 01:39:55 10° N 01:42:27 39° N 01:42:27 39° N
Cosmos 1354 Rocket 4.0 01:45:26 72° WNW 01:45:30 72° WNW 01:50:50 10° NNE
Lacrosse 5 rocket 4.0 01:45:19 10° NNW 01:48:31 20° NNE 01:51:48 10° ENE
Cosmos 883 Rocket 4.5 01:43:57 10° NNW 01:50:15 68° W 01:50:58 63° SW
CENTAUR R/B 2.6 01:50:42 57° SE 01:51:07 59° ESE 01:57:44 10° NE
Cosmos 1503 Rocket 4.1 01:51:14 66° W 01:51:24 67° WNW 01:56:43 10° NNE
Cosmos 2058 4.1 01:54:35 37° ENE 01:54:35 37° ENE 01:57:48 10° NNE
USA 32 4.2 01:49:15 10° N 01:54:29 64° E 01:54:47 62° ESE
Cosmos 841 Rocket 3.8 01:49:55 10° NNW 01:54:33 54° W 01:54:33 54° W
Cosmos 1300 4.4 01:52:25 10° NNE 01:55:21 29° ENE 01:55:21 29° ENE
Nadezhda 2 Rocket 4.4 01:56:22 66° SSW 01:57:18 80° W 02:03:37 10° N
Cosmos 1707 Rocket 4.4 01:55:04 10° N 01:59:04 42° ENE 01:59:04 42° ENE
Cosmos 1441 Rocket 4.3 02:00:22 45° NNW 02:00:22 45° NNW 02:03:15 10° N
Cosmos 2082 Rocket 2.4 02:00:04 55° W 02:00:45 59° WNW 02:06:22 10° NNE
Cosmos 1697 Rocket 2.5 01:55:09 10° NNW 02:00:52 87° ENE 02:01:24 74° SE
Cosmos 1437 Rocket 3.8 01:58:13 10° N 02:00:53 42° NNW 02:00:53 42° NNW
CZ-2C R/B 3.0 02:05:11 76° SSW 02:05:37 84° WSW 02:11:22 10° NNW
Cosmos 2151 3.4 02:06:59 59° N 02:06:59 59° N 02:10:30 10° N
Cosmos 1151 Rocket 3.8 02:02:50 10° NNW 02:06:00 43° NW 02:06:00 43° NW
Cosmos 1833 Rocket 2.7 02:07:07 62° WSW 02:07:43 67° WNW 02:13:22 10° NNE
ATLAS 5 CENTAUR R/B 4.2 02:14:08 11° ESE 02:14:18 11° ESE 02:15:39 10° E
ISS -0.3 02:12:29 10° NNW 02:14:45 17° NNE 02:16:59 10° ENE
Cosmos 783 Rocket 4.4 02:09:37 10° NNW 02:14:57 86° ENE 02:15:21 76° SE
ASTEX 1 3.2 02:11:59 10° N 02:16:59 88° E 02:17:04 86° SSE
Cosmos 1726 3.3 02:16:44 10° N 02:19:41 39° NE 02:19:41 39° NE
Cosmos 332 Rocket 4.0 02:16:37 10° NNW 02:21:24 63° ENE 02:21:55 59° ESE
Cosmos 2315 Rocket 4.2 02:16:59 10° NNW 02:23:05 52° W 02:23:54 49° WSW
Cosmos 1674 4.3 02:25:43 27° NW 02:25:43 27° NW 02:28:06 10° NNW
Cosmos 1656 4.3 02:22:57 10° NW 02:27:54 42° W 02:27:54 42° W
Cosmos 2360 4.5 02:23:31 10° NNW 02:29:12 64° ENE 02:31:29 36° SE
Landsat 4 4.3 02:30:13 54° NNE 02:30:13 54° NNE 02:33:23 10° N
Cosmos 1745 Rocket 4.1 02:29:28 51° SSE 02:31:09 75° E 02:37:29 10° N
Sich 1 3.1 02:31:28 72° E 02:31:28 72° E 02:35:47 10° NNE
CZ-2C R/B 3.8 02:33:04 10° N 02:37:50 31° WNW 02:39:00 28° W
Nadezhda 1 Rocket 4.0 02:31:45 10° N 02:37:55 71° E 02:40:02 42° SSE
Cosmos 1626 4.1 02:40:53 22° E 02:41:14 22° E 02:44:10 10° NE
Meteor 1-27 4.2 02:37:33 10° NNW 02:43:24 77° W 02:44:36 57° SSW
SL-16 R/B 3.1 02:38:20 10° NNW 02:43:48 46° ENE 02:48:36 13° SE
JB-3 4.4 02:44:02 10° NNE 02:47:48 74° ENE 02:47:48 74° ENE
Aureole 1 Rocket 4.1 02:45:46 10° NW 02:50:19 43° WSW 02:50:19 43° WSW
SL-14 R/B 3.5 02:51:16 59° NNW 02:51:16 59° NNW 02:54:36 10° N
Cosmos 2322 Rocket 2.6 02:49:54 10° NNW 02:55:29 61° ENE 02:59:24 20° SE
ARIANE 5 R/B 4.5 02:53:39 10° NE 02:57:25 21° E 03:00:18 13° SE
Cosmos 540 Rocket 4.0 02:52:41 10° NNW 02:57:19 41° W 02:57:19 41° W
Lacrosse 5 2.3 02:56:54 10° NW 03:00:57 45° W 03:00:57 45° W
Cosmos 1703 3.1 03:02:50 87° WNW 03:02:50 87° WNW 03:06:48 10° N
PSLV R/B 3.8 02:58:21 10° N 03:02:51 55° WNW 03:03:15 53° W
USA 215 3.2 02:59:32 10° NE 03:06:06 77° SE 03:08:41 40° SSW
ADEOS 4.3 03:02:48 10° NNE 03:07:50 47° E 03:09:57 30° SSE
Cosmos 1271 Rocket 2.8 03:06:05 10° N 03:09:52 68° E 03:10:13 63° ESE
Cosmos 371 Rocket 3.2 03:07:37 10° NNW 03:12:25 62° WSW 03:13:02 56° SW
IRS-P3 Rocket 4.5 03:12:05 10° NNE 03:17:20 84° WNW 03:19:01 45° SSW
CZ-2D R/B 3.9 03:15:40 10° NE 03:19:54 24° E 03:24:00 11° SSE
Cosmos 1980 Rocket 3.0 03:19:37 10° NW 03:24:30 31° WSW 03:24:37 31° WSW
BREEZE-M DEB (TANK) 4.2 03:20:23 10° WNW 03:24:58 27° N 03:27:16 10° ENE
Cosmos 2360 Rocket 3.5 03:20:10 10° N 03:25:26 39° ENE 03:30:40 10° SE
ERS-2 2.6 03:22:08 10° N 03:25:44 47° WNW 03:25:52 47° W
Cosmos 2242 Rocket 4.5 03:24:17 10° NNW 03:28:12 32° W 03:28:12 32° W
Lacrosse 5 rocket 1.4 03:23:53 10° NW 03:28:17 87° SW 03:32:51 10° SE
NPP 3.7 03:24:42 10° N 03:30:02 65° WNW 03:32:03 38° SW
Cosmos 1633 Rocket 4.3 03:29:41 26° W 03:30:08 27° WNW 03:33:55 10° NNW
Meteor 1-4 Rocket 2.7 03:29:58 10° NNW 03:33:40 56° W 03:33:52 55° WSW
Meteor 2-10 4.2 03:31:17 10° NNW 03:36:24 55° W 03:38:21 36° SSW
AQUA 4.0 03:35:00 10° N 03:39:41 59° WNW 03:41:19 38° SW
Cosmos 2181 Rocket 3.9 03:33:44 10° N 03:39:55 85° W 03:44:14 21° S
OAO 3 Rocket 3.5 03:40:40 40° SSW 03:41:00 40° S 03:45:24 10° ESE
Cosmos 968 Rocket 4.4 03:39:31 27° WSW 03:41:18 35° WNW 03:46:01 10° N
Cosmos 2292 Rocket 2.7 03:41:40 66° S 03:42:04 90° WNW 03:45:40 10° N
CENTAUR R/B 3.9 03:37:51 15° W 03:42:14 31° NW 03:48:23 10° NNE
Cosmos 2322 4.5 03:37:33 10° NNW 03:43:10 53° ENE 03:48:45 10° SE
Cosmos 1703 Rocket 3.8 03:43:27 10° N 03:47:48 66° E 03:51:02 17° SSE
Cosmos 1470 Rocket 4.5 03:49:23 29° WSW 03:50:25 33° WNW 03:54:26 10° NNW
ISS -3.0 03:48:24 10° NW 03:51:40 68° NE 03:54:54 10° ESE
IRS-1C 4.4 03:52:28 10° N 03:57:41 54° WNW 04:00:24 27° SW
ATLAS 5 CENTAUR R/B 1.8 03:55:40 31° SW 03:58:03 85° NW 04:03:19 10° NE
Cosmos 1455 2.9 03:55:17 10° NNW 03:58:43 33° W 03:59:10 32° WSW
Cosmos 2298 Rocket 4.4 04:03:21 18° S 04:07:14 63° ESE 04:12:31 10° NNE
USA 229 DEB 4.1 04:03:01 18° S 04:08:08 57° ESE 04:14:57 10° NE
USA 229 4.2 04:03:06 18° S 04:08:14 57° ESE 04:15:03 10° NE
BREEZE-M DEB (TANK) 4.4 03:59:04 10° W 04:08:32 52° N 04:11:59 10° ENE
Cosmos 2074 Rocket 4.0 04:03:57 16° S 04:09:04 86° E 04:15:22 10° N
Resurs 1-4 Rocket 2.3 04:04:25 10° NNE 04:09:45 71° ESE 04:14:13 15° S
Spot 4 Rocket 4.3 04:05:31 10° N 04:10:33 56° WNW 04:13:36 23° SW
Cosmos 923 Rocket 4.4 04:06:12 10° NNW 04:11:06 41° WSW 04:14:12 20° SSW
Okean 1-7 3.2 04:06:59 10° N 04:11:23 74° E 04:15:43 10° SSE
USA 161 3.0 04:14:46 18° WNW 04:14:46 18° WNW 04:15:51 10° NW
Cosmos 1833 4.3 04:10:10 23° SSW 04:13:55 75° WNW 04:19:41 10° NNE
COSMOS 2428 3.8 04:09:01 10° NNW 04:14:30 48° ENE 04:19:57 10° SE
Cosmos 2184 Rocket 4.0 04:09:43 15° S 04:15:11 89° W 04:21:34 10° N
Cosmos 1626 3.6 04:15:37 20° W 04:16:33 22° WNW 04:19:31 10° NNW
SL-16 R/B 2.5 04:10:46 10° SSE 04:17:01 81° WSW 04:23:19 10° NNW
SL-08 ROCKET BODY 4.5 04:14:03 12° S 04:19:39 84° E 04:25:49 10° N
Cosmos 1680 Rocket 3.8 04:15:05 10° NNW 04:20:01 44° WSW 04:24:23 13° S
GENESIS II 4.2 04:17:19 10° NW 04:21:27 71° WSW 04:25:27 10° SSE
Cosmos 2327 Rocket 4.4 04:17:08 15° SSW 04:22:15 76° W 04:28:28 10° N
GPS 2-05 Rocket1 3.5 04:24:25 26° SW 04:25:25 32° S 04:28:30 10° ESE
SL-16 R/B 3.2 04:23:03 10° NW 04:27:35 25° WSW 04:30:22 17° SW
UNKNOWN OBJECT B 2.8 04:26:26 10° NNE 04:30:16 84° ESE 04:33:41 13° S
SME Rocket 3.9 04:23:42 10° SSE 04:30:22 76° ENE 04:34:55 10° N
Okean O Rocket 2.4 04:27:28 10° NNE 04:31:48 51° E 04:36:04 10° S
MTI 3.9 04:30:34 12° S 04:33:38 61° W 04:36:59 10° NNW
ARIANE 5 R/B 3.0 04:31:55 10° N 04:36:46 45° WNW 04:40:39 15° SW
Cosmos 2237 4.5 04:31:14 10° NNW 04:36:59 75° ENE 04:42:42 10° SSE
ASTRO F (AKARI) 4.3 04:35:26 10° SSE 04:38:42 87° ENE 04:41:54 10° NNW
Cosmos 2322 Rocket 3.6 04:35:16 10° WNW 04:38:57 18° W 04:41:08 15° SW
IRS-1D 4.0 04:35:44 10° N 04:40:52 48° WNW 04:45:17 13° SW
Thor Agena Rocket 4.1 04:35:45 10° SSE 04:40:58 64° ENE 04:46:13 10° N
Meteor 2-3 Rocket 3.8 04:38:03 10° S 04:43:51 86° W 04:49:41 10° N
IRS-1C Rocket 4.2 04:40:20 10° NNE 04:45:39 84° ESE 04:50:56 10° SSW
Cosmos 2219 Rocket 3.6 04:42:02 10° NNW 04:47:22 43° ENE 04:52:40 10° SE
USA 215 4.3 04:42:50 10° NE 04:48:46 38° NNW 04:54:40 10° W
Cosmos 1898 Rocket 3.6 04:44:57 12° SSW 04:49:38 65° WNW 04:54:48 10° NNE
BREEZE-M DEB (TANK) 3.4 04:40:00 13° SW 04:49:53 72° SSE 04:53:19 10° ENE
H-2A R/B 4.2 04:44:34 11° WSW 04:50:46 50° S 05:33:05 10° ESE
Cosmos 389 Rocket 2.6 04:49:29 10° N 04:53:12 90° E 04:56:53 10° S
Cosmos 1937 Rocket 3.5 04:50:49 10° SSW 04:56:07 80° WNW 05:01:27 10° NNE
MOZ.5/SAFIR/RUBIN 5/SL-8 4.1 04:54:32 10° SSE 04:59:11 72° ENE 05:03:55 10° N
CZ-2D R/B 2.7 04:55:11 10° N 05:00:06 41° WNW 05:05:02 10° SW
Okean-O 4.2 04:56:05 10° NNE 05:00:11 35° E 05:04:15 10° SSE
PSLV R/B 3.9 05:00:37 10° N 05:04:32 69° WNW 05:08:33 10° SSW
ATLAS CENTAUR R/B 1.5 05:00:15 10° NW 05:04:52 64° WSW 05:09:05 10° SSE
Lacrosse 5 rocket 3.4 05:05:27 10° W 05:07:01 12° WSW 05:08:36 10° SW
Meteor 1-10 Rocket 4.4 05:02:52 10° N 05:08:37 83° E 05:14:26 10° S
Cosmos 2360 Rocket 3.0 05:04:27 10° NW 05:09:15 29° WSW 05:14:01 10° SSW
CZ-4B R/B 3.0 05:07:21 10° NNE 05:11:25 83° ESE 05:15:42 10° S
CZ-2D R/B 3.9 05:07:53 10° N 05:11:51 43° WNW 05:15:41 10° SW
Cosmos 2227 Rocket 3.2 05:07:11 10° S 05:12:32 47° ESE 05:17:57 10° NE
Meteor 2-10 Rocket 3.5 05:12:57 10° NNW 05:18:00 71° W 05:23:10 10° S
CZ-4B R/B 3.3 05:13:08 10° N 05:18:36 72° WNW 05:24:07 10° SSW
Cosmos 1782 2.9 05:14:58 10° N 05:19:00 88° E 05:22:59 10° S
